Preview of NWS' New Version of Forecast
This preview is not operational and should not be used for support decisions.

Regional Weather Roundup (RWR)

Issued by National Weather Service (NWS)

                            
000
ASUS43 KLSX 210757
RWRMO 

WEATHER SUMMARY FOR MISSOURI
NATIONAL WEATHER SERVICE SPRINGFIELD MO
300 AM CDT SUN JUL 21 2019

NOTE: "FAIR" INDICATES FEW OR NO CLOUDS BELOW 12,000 FEET WITH NO
       SIGNIFICANT WEATHER AND/OR OBSTRUCTIONS TO VISIBILITY.
       CURRENT SKY AND/OR WEATHER CONDITIONS ARE NOT AVAILABLE FOR
       CHILLICOTHE AND FARMINGTON.

MOZ001>031-035>038-043-044-053-054-210900-
...NORTHERN AND WESTERN MISSOURI...
  
CITY           SKY/WX    TMP DP  RH WIND       PRES   REMARKS
KANSAS CTY INT TSTM      70  69  97 E20G29    30.03R FOG              
LEE'S SUMMIT   TSTM      71  68  90 E10       30.01S FOG              
ST JOSEPH      CLOUDY    72  68  87 SE14      30.00R                  
CHILLICOTHE      N/A     71  70  96 VRB5      30.01R                  
     
$$
MOZ066>068-077>081-088>096-101>105-210900-
...SOUTHWEST MISSOURI...
  
CITY           SKY/WX    TMP DP  RH WIND       PRES   REMARKS
SPRINGFIELD    CLEAR     77  71  82 E3        29.99R                  
JOPLIN         CLEAR     77  72  84 S12       29.93F                  
               
$$
MOZ032>034-039>042-045>050-055>058-069>072-210900-
...CENTRAL MISSOURI...  
  
CITY           SKY/WX    TMP DP  RH WIND       PRES   REMARKS
COLUMBIA       NOT AVBL                                               
ROLLA          CLEAR     76  67  73 NE3       29.96F                  
SEDALIA        LGT RAIN  69  69 100 NE7       29.99F                  
WARRENSBURG    MOCLDY    68  68 100 E8        29.99F                  
               
$$
MOZ051-052-059>065-210900-
...EAST CENTRAL MISSOURI...
  
CITY           SKY/WX    TMP DP  RH WIND       PRES   REMARKS
ST LOUIS INTL  MOCLDY    83  74  74 SW8       29.89F                  
                   
$$
MOZ072>076-082>087-097>100-106>115-210900-
...SOUTH CENTRAL AND SOUTHEAST MISSOURI...
  
CITY           SKY/WX    TMP DP  RH WIND       PRES   REMARKS
CAPE GIRARDEAU FAIR      79  75  87 W5        29.91F                  
POPLAR BLUFF   FAIR      79  78  97 W5        29.92F                  
WEST PLAINS    CLEAR     75  72  90 CALM      29.99S                  
                                       
$$